Location: Most
(50.5133°N, 13.6207°E)
Time: 00:18:29
(UTC+02:00)

ISS - Pass Details

Date: 26 September 2021
Orbit: 417 x 423 km, 51.6° (Epoch: 22 October)

Event Time Altitude Azimuth Distance (km) Brightness Sun altitude
Rises 20:57:15 0° 282° (WNW) 2,366 1.6 -19.9°
Reaches altitude 10° 20:59:21 10° 283° (WNW) 1,502 0.2 -20.2°
Enters shadow 21:02:34 79° 311° (NW) 432 -3.7 -20.7°
